Notices

What's New in latest Release from April 7th, 2021:

- Updated Glossary, including Speed of Maximum Gust, and Total Hourly Precipitation

- Updated national and regional climate services offices contacts and prices information

- Addition of station inventory lists for 1981-2010, 1971-2000, and 1961-1990 Normals.

If you haven't already, please take our survey and provide feedback about our website: https://eccc.sondage-survey.ca/f/LanguageSelection.aspx?s=442ca660-fcf1-47c0-95a9-59707d6fd709

Hourly Data Report for April 16, 2020

MIRAMICHI RCS
NEW BRUNSWICK
Current Station Operator: ECCC - MSC

47°00'34.000" N
65°27'54.000" W
33.00 m
8100989
71744
ACQ

Download Data

Hourly Data (April 2020)
Hourly Data Report for April 16, 2020
TIME
LST
Temp Definition
°C
Dew Point Definition
°C
Rel Hum Definition
%
Precip. Amount Definition
mm

Wind Dir Definition
10's deg

Wind Spd Definition
km/h
Visibility Definition
km
Stn Press Definition
kPa
Hmdx Definition


Wind Chill Definition


Weather Definition


00:00 -0.3 -5.1 70 LegendMM 24 9   100.15   -3 LegendNANA
01:00 -1.1 -5.2 73 LegendMM 24 10   100.12   -5 LegendNANA
02:00 -1.3 -5.4 74 LegendMM 26 10   100.12   -5 LegendNANA
03:00 -1.5 -5.4 75 LegendMM 25 10   100.13   -5 LegendNANA
04:00 -1.4 -5.2 75 LegendMM 25 11   100.15   -5 LegendNANA
05:00 -1.3 -4.7 78 LegendMM 25 13   100.21   -6 LegendNANA
06:00 -1.1 -4.5 78 LegendMM 25 9   100.30   -4 LegendNANA
07:00 -0.2 -4.9 70 LegendMM 28 12   100.42   -4 LegendNANA
08:00 0.5 -9.7 46 LegendMM 30 18   100.48     LegendNANA
09:00 1.2 -9.3 45 LegendMM 29 19   100.50     LegendNANA
10:00 1.6 -10.5 40 LegendMM 30 22   100.52     LegendNANA
11:00 2.5 -11.4 35 LegendMM 27 24   100.51     LegendNANA
12:00 2.7 -12.4 32 LegendMM 26 28   100.48     LegendNANA
13:00 3.7 -11.2 33 LegendMM 29 22   100.48     LegendNANA
14:00 3.4 -12.3 31 LegendMM 26 28   100.48     LegendNANA
15:00 3.2 -12.6 30 LegendMM 29 24   100.46     LegendNANA
16:00 4.0 -12.4 29 LegendMM 27 25   100.45     LegendNANA
17:00 3.8 -12.9 28 LegendMM 28 21   100.48     LegendNANA
18:00 2.8 -12.8 31 LegendMM 29 17   100.54     LegendNANA
19:00 2.3 -13.6 30 LegendMM 28 18   100.61     LegendNANA
20:00 0.4 -12.4 38 LegendMM 27 8   100.69     LegendNANA
21:00 -0.7 -12.4 41 LegendMM 26 6   100.74   -3 LegendNANA
22:00 -2.1 -11.1 50 LegendMM 26 5   100.75   -4 LegendNANA
23:00 -2.7 -10.7 54 LegendMM 27 4   100.74   -4 LegendNANA

Notes on Data Quality.

Legend

  • E = Estimated
  • M = Missing
  • NA = Not Available*
  • [empty] = Indicates an unobserved value
Date modified: